#timestamp,LO_Frequency,Hit,StdDev 
1599955215.2,286047001.8,P
1599955235.0,286047001.4,N
1599955235.9,286047001.4,N
1599955255.7,286047004.4,Y
1599955275.6,286047003.8,P
1599955295.4,286047001.5,N
1599955315.3,286047002.1,N
1599955335.1,286047002.7,N
1599955336.0,286047002.7,N
1599955355.8,286047001.6,N
1599955375.7,286047001.8,N
1599955395.5,286047002.8,Y
1599955415.4,286046998.4,P
1599955435.2,286047001.0,N
1599955455.0,286046999.7,N
1599955455.9,286046999.7,N
1599955475.8,286047000.5,N
1599955495.6,286047001.1,N
1599955515.4,286046999.0,N
1599955535.3,286046997.2,N
1599955555.1,286046997.6,N
1599955575.9,286046999.4,N
1599955595.7,286046999.5,N
1599955615.5,286047001.1,N
1599955635.4,286047000.1,N
1599955655.2,286047001.1,N
1599955675.0,286047001.2,N
1599955675.9,286047001.2,N
1599955695.8,286046999.5,N
1599955715.6,286046996.8,N
1599955735.5,286046996.8,N
1599955755.3,286046997.5,N
1599955775.1,286046997.5,N
1599955795.9,286046998.0,N
1599955815.7,286046999.1,N
1599955835.5,286046999.3,N
1599955855.4,286046997.3,N
1599955875.2,286046995.3,Y
1599955895.1,286046996.6,P
1599955896.0,286046996.6,N
1599955915.8,286046997.5,N
1599955935.6,286046998.8,N
1599955955.5,286046998.9,N
1599955975.3,286046998.7,N
1599955995.2,286047000.0,N
1599956015.9,286047000.1,N
1599956035.7,286047004.0,Y
1599956055.6,286047001.4,P
1599956075.4,286046999.8,N
1599956095.2,286047002.6,N
1599956115.1,286047000.0,N
1599956116.0,286047000.0,N
1599956135.8,286047000.9,N
1599956155.7,286047000.5,N
1599956175.5,286046996.5,Y
1599956195.3,286046997.3,P
1599956215.2,286046998.1,N
1599956235.0,286047000.9,N
1599956235.9,286047000.9,N
1599956255.8,286047000.3,N
1599956275.6,286047000.4,N
1599956295.4,286046999.4,N
1599956315.3,286046999.2,N
1599956335.1,286046999.2,N
1599956355.8,286046998.9,N
1599956375.7,286046999.0,N
1599956395.5,286046998.9,N
1599956415.4,286047000.5,N
1599956435.2,286047000.2,N
1599956455.0,286047002.6,N
1599956455.9,286047002.6,N
1599956475.8,286047003.5,N
1599956495.6,286047003.9,N
1599956515.4,286047004.1,N
1599956535.3,286047003.2,N
1599956555.1,286047001.4,N
1599956575.9,286047001.6,N
1599956595.7,286047001.4,N
1599956615.5,286047001.5,N
1599956635.4,286047002.7,N
1599956655.2,286047002.2,N
1599956675.0,286047002.3,N
1599956675.9,286047002.3,N
1599956695.8,286047003.9,N
1599956715.6,286047002.6,N
1599956735.5,286046999.9,N
1599956755.3,286047001.4,N
1599956775.1,286047000.4,N
1599956795.9,286047002.6,N
1599956815.7,286047004.2,N
1599956835.5,286047002.0,N
1599956855.4,286047001.9,N
1599956875.2,286047000.1,N
1599956895.1,286047001.0,N
1599956896.0,286047001.0,N
1599956915.8,286047000.1,N
1599956935.6,286047003.2,N
1599956955.5,286047004.0,Y
1599956975.3,286047001.3,P
1599956995.2,286047001.9,P
1599957015.9,286047000.2,N
1599957035.7,286047001.2,N
1599957055.6,286047001.1,N
1599957075.4,286047001.8,N
1599957095.2,286047002.5,Y
1599957115.1,286046998.8,P
1599957116.0,286046998.8,N
1599957135.8,286046998.7,N
1599957155.7,286046998.3,N
1599957175.5,286046999.4,N
1599957195.3,286046996.8,Y
1599957215.2,286046999.4,P
1599957235.0,286047001.0,P
1599957235.9,286047001.0,N
1599957255.8,286046998.6,N
1599957275.6,286046999.3,N
1599957295.4,286046998.3,N
1599957315.3,286046999.6,N
1599957335.1,286046995.1,Y
1599957355.9,286046999.6,P
1599957375.7,286046996.9,P
1599957395.5,286046996.7,N
1599957415.4,286047000.1,N
1599957435.2,286046998.9,N
1599957455.0,286047001.0,N
1599957456.0,286047001.0,N
1599957475.8,286046997.0,N
1599957495.6,286047000.3,N
1599957515.5,286047002.0,N
1599957535.3,286047002.4,N
1599957555.1,286046998.3,N
1599957575.9,286047000.8,N
1599957595.7,286047002.4,N
1599957615.6,286047001.9,N
1599957635.4,286047002.8,N
1599957655.2,286047004.4,N
1599957675.1,286047002.1,N
1599957676.0,286047002.1,N
1599957695.8,286046998.5,N
1599957715.6,286046996.7,N
1599957735.5,286046996.5,N
1599957755.3,286046999.3,N
1599957775.2,286046999.1,N
1599957795.9,286046996.5,N
1599957815.7,286046997.2,N
1599957835.6,286046997.2,N
1599957855.4,286046997.3,N
1599957875.3,286046996.9,N
1599957895.1,286046999.0,N
1599957896.0,286046999.0,N
1599957915.8,286046997.1,N
1599957935.7,286046998.6,N
1599957955.5,286046999.5,N
1599957975.3,286046999.6,N
1599957995.2,286046999.1,N
1599958015.0,286046997.2,N
1599958015.9,286046997.2,N
1599958035.8,286046998.0,N
1599958055.6,286046997.5,N
1599958075.4,286046995.5,N
1599958095.3,286046996.0,N
1599958115.1,286046997.8,N
1599958135.9,286046995.6,N
1599958155.7,286046997.4,N
1599958175.5,286046993.6,Y
1599958195.4,286046997.1,P
1599958215.2,286046997.5,P
1599958235.0,286046997.0,P
1599958235.9,286046997.0,Y
1599958255.8,286047000.9,P
1599958275.6,286046998.2,N
1599958295.5,286046998.4,N
1599958315.3,286046999.6,N
1599958335.1,286047000.7,N
1599958355.9,286047000.4,N
1599958375.7,286047000.1,N
1599958395.5,286047001.8,N
1599958415.4,286047003.0,N
1599958435.2,286047001.5,N
1599958455.1,286047002.2,N
1599958456.0,286047002.2,N
1599958475.8,286047002.5,N
1599958495.6,286047002.3,N
1599958515.5,286047011.9,Y
1599958535.3,286047004.5,P
1599958555.2,286047004.8,N
1599958575.9,286047002.9,N
1599958595.7,286047003.8,N
1599958615.6,286047005.6,Y
1599958635.4,286047001.7,P
1599958655.3,286047002.1,N
1599958675.1,286047001.7,N
1599958676.0,286047001.7,N
1599958695.8,286047002.6,Y
1599958715.7,286046997.3,P
1599958735.5,286046998.7,N
1599958755.3,286046996.7,N
1599958775.2,286046997.6,N
1599958795.0,286046995.8,N
1599958795.9,286046995.8,N
